QZS-6 (QZSS/PRN 200)

Last updated on Fri Dec 19 2025 00:03:30 GMT+0000 (Coordinated Universal Time)

1 62876U 25023A 25352.57189472 -.00000209 00000+0 00000+0 0 9991 2 62876 0.0455 67.0334 0001490 210.4834 106.3340 1.00273080 3140
UTC large
Height (km)
Speed (km/s)
/
Latitude / Longitude
Inclination (degrees)
Orbital Period (minutes)
Azimuth
Elevation
Range (km)
Doppler Factor

Next 0 passes for location: London (51.5072 / 0.1276)

Sorry there are no passes over London.